TimeCST,TemperatureF,Dew PointF,Humidity,Sea Level PressureIn,VisibilityMPH,Wind Direction,Wind SpeedMPH,Gust SpeedMPH,PrecipitationIn,Events,Conditions,WindDirDegrees,DateUTC
12:15 AM,50.7,42.4,73,29.94,10.0,WNW,8.1,-,N/A,,Clear,300,2013-11-18 06:15:00
12:35 AM,49.6,42.1,75,29.95,10.0,WNW,10.4,-,N/A,,Clear,300,2013-11-18 06:35:00
12:55 AM,49.3,41.5,75,29.95,10.0,WNW,8.1,-,N/A,,Clear,300,2013-11-18 06:55:00
1:15 AM,47.3,41.5,80,29.96,10.0,West,5.8,-,N/A,,Clear,280,2013-11-18 07:15:00
1:35 AM,46.9,41.5,81,29.97,10.0,West,5.8,-,N/A,,Clear,280,2013-11-18 07:35:00
1:55 AM,45.0,41.2,87,29.98,10.0,West,8.1,-,N/A,,Clear,260,2013-11-18 07:55:00
2:15 AM,46.9,42.1,83,29.99,10.0,WSW,8.1,-,N/A,,Clear,250,2013-11-18 08:15:00
2:35 AM,47.7,42.4,82,29.99,10.0,West,10.4,-,N/A,,Clear,260,2013-11-18 08:35:00
2:55 AM,47.8,42.8,83,30.01,10.0,West,10.4,-,N/A,,Clear,260,2013-11-18 08:55:00
3:15 AM,47.8,42.8,83,30.01,10.0,West,12.7,-,N/A,,Clear,260,2013-11-18 09:15:00
3:35 AM,46.6,42.3,85,30.01,10.0,West,9.2,-,N/A,,Clear,270,2013-11-18 09:35:00
3:55 AM,45.7,42.1,87,30.01,10.0,West,9.2,-,N/A,,Clear,270,2013-11-18 09:55:00
4:15 AM,45.5,41.7,87,30.01,10.0,West,6.9,-,N/A,,Clear,280,2013-11-18 10:15:00
4:35 AM,45.0,41.4,87,30.00,10.0,WNW,6.9,-,N/A,,Clear,290,2013-11-18 10:35:00
4:55 AM,45.0,41.4,87,30.00,10.0,WNW,6.9,-,N/A,,Clear,290,2013-11-18 10:55:00
5:15 AM,44.8,41.4,88,30.01,10.0,WNW,9.2,-,N/A,,Clear,300,2013-11-18 11:15:00
5:35 AM,44.8,41.2,87,30.02,10.0,WNW,10.4,-,N/A,,Clear,300,2013-11-18 11:35:00
5:55 AM,44.6,41.0,87,30.03,10.0,WNW,8.1,-,N/A,,Clear,290,2013-11-18 11:55:00
6:15 AM,44.1,40.6,88,30.03,10.0,WNW,8.1,-,N/A,,Clear,290,2013-11-18 12:15:00
6:35 AM,43.7,40.1,87,30.04,10.0,West,6.9,-,N/A,,Clear,280,2013-11-18 12:35:00
6:55 AM,43.7,40.3,88,30.06,10.0,West,8.1,-,N/A,,Clear,270,2013-11-18 12:55:00
7:15 AM,44.6,40.6,86,30.06,10.0,West,9.2,-,N/A,,Clear,280,2013-11-18 13:15:00
7:35 AM,45.5,40.6,83,30.07,10.0,West,9.2,-,N/A,,Clear,280,2013-11-18 13:35:00
7:55 AM,46.2,40.6,81,30.08,10.0,WNW,10.4,-,N/A,,Clear,290,2013-11-18 13:55:00
8:15 AM,46.9,40.8,79,30.09,10.0,WNW,13.8,17.3,N/A,,Clear,290,2013-11-18 14:15:00
8:35 AM,48.2,40.8,76,30.10,10.0,WNW,15.0,-,N/A,,Clear,290,2013-11-18 14:35:00
8:55 AM,48.7,40.8,74,30.11,10.0,WNW,16.1,19.6,N/A,,Clear,290,2013-11-18 14:55:00
9:15 AM,49.5,40.8,72,30.11,10.0,WNW,17.3,-,N/A,,Clear,290,2013-11-18 15:15:00
9:35 AM,50.0,41.0,71,30.12,10.0,WNW,13.8,21.9,N/A,,Clear,290,2013-11-18 15:35:00
9:55 AM,50.9,41.0,69,30.12,10.0,WNW,13.8,23.0,N/A,,Clear,290,2013-11-18 15:55:00
10:15 AM,51.1,40.3,67,30.12,10.0,WNW,16.1,26.5,N/A,,Clear,300,2013-11-18 16:15:00
10:35 AM,51.8,40.3,65,30.13,10.0,West,17.3,25.3,N/A,,Clear,280,2013-11-18 16:35:00
10:55 AM,52.2,39.6,62,30.13,10.0,WNW,17.3,28.8,N/A,,Clear,300,2013-11-18 16:55:00
11:15 AM,52.9,39.6,61,30.13,10.0,WNW,20.7,25.3,N/A,,Clear,290,2013-11-18 17:15:00
11:35 AM,53.2,37.4,55,30.13,10.0,WNW,20.7,26.5,N/A,,Clear,300,2013-11-18 17:35:00
11:55 AM,53.8,37.9,55,30.13,10.0,WNW,19.6,26.5,N/A,,Clear,300,2013-11-18 17:55:00
12:15 PM,53.6,37.0,53,30.13,10.0,WNW,20.7,26.5,N/A,,Clear,300,2013-11-18 18:15:00
12:35 PM,53.8,36.9,53,30.14,10.0,WNW,21.9,28.8,N/A,,Clear,300,2013-11-18 18:35:00
12:55 PM,53.6,35.6,51,30.14,10.0,WNW,21.9,28.8,N/A,,Clear,300,2013-11-18 18:55:00
1:15 PM,53.6,35.6,51,30.15,10.0,NW,17.3,26.5,N/A,,Clear,310,2013-11-18 19:15:00
1:35 PM,53.6,35.1,50,30.15,10.0,WNW,16.1,27.6,N/A,,Clear,300,2013-11-18 19:35:00
1:55 PM,53.6,34.5,48,30.15,10.0,NW,18.4,26.5,N/A,,Clear,310,2013-11-18 19:55:00
2:15 PM,53.6,35.2,50,30.15,10.0,NW,15.0,21.9,N/A,,Clear,310,2013-11-18 20:15:00
2:35 PM,53.6,35.4,50,30.16,10.0,NW,18.4,24.2,N/A,,Clear,320,2013-11-18 20:35:00
2:55 PM,53.1,34.7,50,30.16,10.0,WNW,13.8,24.2,N/A,,Clear,300,2013-11-18 20:55:00
3:15 PM,52.7,34.5,50,30.17,10.0,WNW,16.1,26.5,N/A,,Clear,300,2013-11-18 21:15:00
3:35 PM,52.2,33.3,49,30.18,10.0,WNW,12.7,23.0,N/A,,Clear,300,2013-11-18 21:35:00
3:55 PM,51.4,32.7,49,30.18,10.0,NW,15.0,23.0,N/A,,Clear,310,2013-11-18 21:55:00
4:15 PM,50.5,32.4,50,30.19,10.0,NW,11.5,-,N/A,,Clear,320,2013-11-18 22:15:00
4:35 PM,49.5,33.4,54,30.20,10.0,NW,9.2,-,N/A,,Clear,310,2013-11-18 22:35:00
4:55 PM,48.2,34.5,59,30.21,10.0,WNW,6.9,-,N/A,,Clear,300,2013-11-18 22:55:00
5:15 PM,45.7,35.2,67,30.21,10.0,NW,6.9,-,N/A,,Clear,320,2013-11-18 23:15:00
5:35 PM,46.0,34.7,65,30.21,10.0,NW,8.1,-,N/A,,Clear,310,2013-11-18 23:35:00
5:55 PM,43.9,34.7,70,30.21,10.0,NW,5.8,-,N/A,,Clear,310,2013-11-18 23:55:00
6:15 PM,43.5,33.4,68,30.22,10.0,NW,4.6,-,N/A,,Clear,310,2013-11-19 00:15:00
6:35 PM,43.2,33.8,70,30.22,10.0,WNW,9.2,-,N/A,,Clear,300,2013-11-19 00:35:00
6:55 PM,43.5,33.6,68,30.22,10.0,WNW,6.9,-,N/A,,Clear,300,2013-11-19 00:55:00
7:15 PM,41.9,33.8,73,30.23,10.0,WNW,8.1,-,N/A,,Clear,300,2013-11-19 01:15:00
7:35 PM,43.2,33.3,68,30.23,10.0,WNW,8.1,-,N/A,,Clear,290,2013-11-19 01:35:00
7:55 PM,41.5,32.9,71,30.23,10.0,WNW,8.1,-,N/A,,Clear,290,2013-11-19 01:55:00
8:15 PM,42.8,32.0,66,30.24,10.0,WNW,8.1,-,N/A,,Clear,300,2013-11-19 02:15:00
8:35 PM,42.4,32.0,67,30.24,10.0,WNW,8.1,-,N/A,,Clear,300,2013-11-19 02:35:00
8:55 PM,41.5,32.0,69,30.25,10.0,NW,5.8,-,N/A,,Clear,310,2013-11-19 02:55:00
9:15 PM,40.5,32.0,72,30.25,10.0,NW,6.9,-,N/A,,Clear,310,2013-11-19 03:15:00
9:35 PM,39.7,32.0,74,30.26,10.0,NW,4.6,-,N/A,,Clear,320,2013-11-19 03:35:00
9:55 PM,39.4,32.0,75,30.27,10.0,NW,4.6,-,N/A,,Clear,320,2013-11-19 03:55:00
10:15 PM,39.2,32.0,75,30.27,10.0,NNW,4.6,-,N/A,,Clear,330,2013-11-19 04:15:00
10:35 PM,38.3,31.8,77,30.27,10.0,NW,4.6,-,N/A,,Clear,320,2013-11-19 04:35:00
10:55 PM,38.7,31.1,74,30.28,10.0,NW,3.5,-,N/A,,Clear,320,2013-11-19 04:55:00
11:15 PM,38.3,31.6,77,30.28,10.0,NNW,5.8,-,N/A,,Clear,340,2013-11-19 05:15:00
11:35 PM,38.3,31.3,76,30.28,10.0,NNW,5.8,-,N/A,,Clear,340,2013-11-19 05:35:00
11:55 PM,37.4,31.6,80,30.29,10.0,NNW,4.6,-,N/A,,Clear,340,2013-11-19 05:55:00